H1 CPF 2 NER 2022 4 30 9 120 01 glonass134 H2 1407501 9134 40315 2022 4 30 0 0 0 2022 5 3 23 45 0 900 1 1 0 0 0 1 H9 10 0 59699 0.00000 0 -9264016.013 -14524177.735 -18765550.639 10 0 59699 900.00000 0 -7054553.150 -13534081.195 -20400284.816 10 0 59699 1800.00000 0 -4614164.681 -12643681.169 -21637404.498 10 0 59699 2700.00000 0 -1995796.445 -11893534.350 -22453028.327 10 0 59699 3600.00000 0 740250.596 -11314615.909 -22831528.518 10 0 59699 4500.00000 0 3528593.105 -10927031.813 -22765816.797 10 0 59699 5400.00000 0 6301247.831 -10739211.352 -22257461.213 10 0 59699 6300.00000 0 8990220.174 -10747611.970 -21316633.253 10 0 59699 7200.00000 0 11530091.268 -10936946.569 -19961887.984 10 0 59699 8100.00000 0 13860496.848 -11280921.451 -18219783.091 10 0 59699 9000.00000 0 15928396.243 -11743451.722 -16124345.549 10 0 59699 9900.00000 0 17690038.941 -12280301.223 -13716397.431 10 0 59699 10800.00000 0 19112549.281 -12841076.625 -11042754.664 10 0 59699 11700.00000 0 20175065.846 -13371490.986 -8155314.737 10 0 59699 12600.00000 0 20869390.676 -13815801.208 -5110051.197 10 0 59699 13500.00000 0 21200123.778 -14119317.044 -1965934.241 10 0 59699 14400.00000 0 21184279.564 -14230876.667 1216202.193 10 0 59699 15300.00000 0 20850403.030 -14105185.489 4374825.567 10 0 59699 16200.00000 0 20237223.911 -13704920.821 7448880.514 10 0 59699 17100.00000 0 19391905.774 -13002514.711 10378953.706 10 0 59699 18000.00000 0 18367963.374 -11981540.628 13108406.464 10 0 59699 18900.00000 0 17222934.970 -10637645.901 15584454.630 10 0 59699 19800.00000 0 16015906.089 -8978990.308 17759176.209 10 0 59699 20700.00000 0 14804987.177 -7026171.374 19590428.505 10 0 59699 21600.00000 0 13644849.394 -4811637.669 21042658.158 10 0 59699 22500.00000 0 12584420.421 -2378612.213 22087589.203 10 0 59699 23400.00000 0 11664835.794 220431.887 22704776.192 10 0 59699 24300.00000 0 10917730.979 2925683.224 22882011.627 10 0 59699 25200.00000 0 10363945.692 5672214.840 22615579.219 10 0 59699 26100.00000 0 10012695.354 8392428.348 21910346.947 10 0 59699 27000.00000 0 9861245.492 11018620.235 20779696.569 10 0 59699 27900.00000 0 9895104.244 13485565.447 19245289.022 10 0 59699 28800.00000 0 10088726.630 15733011.682 17336668.163 10 0 59699 29700.00000 0 10406702.661 17707980.783 15090708.426 10 0 59699 30600.00000 0 10805380.696 19366780.768 12550915.142 10 0 59699 31500.00000 0 11234858.591 20676643.324 9766589.654 10 0 59699 32400.00000 0 11641258.852 21616916.886 6791874.377 10 0 59699 33300.00000 0 11969191.181 22179763.779 3684696.066 10 0 59699 34200.00000 0 12164297.022 22370330.813 505628.237 10 0 59699 35100.00000 0 12175766.465 22206385.294 -2683304.070 10 0 59699 36000.00000 0 11958718.534 21717431.493 -5819852.371 10 0 59699 36900.00000 0 11476341.374 20943345.222 -8842779.612 10 0 59699 37800.00000 0 10701699.069 19932585.234 -11693075.645 10 0 59699 38700.00000 0 9619126.192 18740058.558 -14315127.437 10 0 59699 39600.00000 0 8225149.201 17424731.960 -16657819.208 10 0 59699 40500.00000 0 6528894.389 16047092.436 -18675539.565 10 0 59699 41400.00000 0 4551964.400 14666565.866 -20329075.055 10 0 59699 42300.00000 0 2327788.423 13339004.278 -21586372.317 10 0 59699 43200.00000 0 -99526.362 12114348.515 -22423154.273 10 0 59699 44100.00000 0 -2676793.307 11034564.933 -22823379.170 10 0 59699 45000.00000 0 -5343727.058 10131942.371 -22779534.750 10 0 59699 45900.00000 0 -8035223.164 9427819.670 -22292763.422 10 0 59699 46800.00000 0 -10683841.007 8931795.261 -21372817.654 10 0 59699 47700.00000 0 -13222386.490 8641449.659 -20037848.209 10 0 59699 48600.00000 0 -15586487.446 8542589.934 -18314030.925 10 0 59699 49500.00000 0 -17717055.584 8610003.249 -16235040.632 10 0 59699 50400.00000 0 -19562533.911 8808685.483 -13841383.594 10 0 59699 51300.00000 0 -21080838.055 9095491.255 -11179602.171 10 0 59699 52200.00000 0 -22240912.861 9421134.522 -8301367.566 10 0 59699 53100.00000 0 -23023841.680 9732454.677 -5262478.471 10 0 59699 54000.00000 0 -23423464.527 9974852.458 -2121784.769 10 0 59699 54900.00000 0 -23446481.417 10094793.286 1059943.277 10 0 59699 55800.00000 0 -23112038.384 10042273.251 4221179.135 10 0 59699 56700.00000 0 -22450814.853 9773144.723 7300815.828 10 0 59699 57600.00000 0 -21503651.269 9251204.563 10239331.881 10 0 59699 58500.00000 0 -20319774.585 8449957.829 12979926.035 10 0 59699 59400.00000 0 -18954695.404 7353983.189 15469600.195 10 0 59699 60300.00000 0 -17467863.829 5959842.543 17660171.054 10 0 59699 61200.00000 0 -15920180.745 4276495.928 19509192.059 10 0 59699 62100.00000 0 -14371467.085 2325202.892 20980769.040 10 0 59699 63000.00000 0 -12877995.311 138912.232 22046254.556 10 0 59699 63900.00000 0 -11490184.946 -2238836.978 22684807.873 10 0 59699 64800.00000 0 -10250557.425 -4755460.380 22883809.753 10 0 59699 65700.00000 0 -9192035.226 -7351258.191 22639123.442 10 0 59699 66600.00000 0 -8336656.407 -9961652.634 21955195.679 10 0 59699 67500.00000 0 -7694758.906 -12519642.614 20844994.295 10 0 59699 68400.00000 0 -7264669.750 -14958375.652 19329781.631 10 0 59699 69300.00000 0 -7032913.570 -17213731.346 17438726.132 10 0 59699 70200.00000 0 -6974933.093 -19226809.326 15208357.501 10 0 59699 71100.00000 0 -7056292.611 -20946217.700 12681874.013 10 0 59699 72000.00000 0 -7234314.747 -22330065.385 9908313.937 10 0 59699 72900.00000 0 -7460081.871 -23347573.555 6941606.113 10 0 59699 73800.00000 0 -7680717.367 -23980236.971 3839517.730 10 0 59699 74700.00000 0 -7841849.292 -24222484.718 662520.192 10 0 59699 75600.00000 0 -7890150.442 -24081811.226 -2527403.883 10 0 59699 76500.00000 0 -7775844.973 -23578371.180 -5667987.761 10 0 59699 77400.00000 0 -7455072.779 -22744055.182 -8697915.774 10 0 59699 78300.00000 0 -6892008.734 -21621085.677 -11558040.382 10 0 59699 79200.00000 0 -6060644.427 -20260193.491 -14192555.206 10 0 59699 80100.00000 0 -4946154.809 -18718453.602 -16550099.147 10 0 59699 81000.00000 0 -3545790.259 -17056873.307 -18584768.566 10 0 59699 81900.00000 0 -1869255.295 -15337836.370 -20257016.830 10 0 59699 82800.00000 0 61442.485 -13622512.477 -21534423.252 10 0 59699 83700.00000 0 2212666.826 -11968342.146 -22392316.711 10 0 59699 84600.00000 0 4540321.879 -10426703.309 -22814242.616 10 0 59699 85500.00000 0 6991466.126 -9040857.299 -22792265.296 10 0 59700 0.00000 0 9506302.739 -7844259.464 -22327101.590 10 0 59700 900.00000 0 12020463.958 -6859302.837 -21428084.366 10 0 59700 1800.00000 0 14467490.448 -6096546.793 -20112959.127 10 0 59700 2700.00000 0 16781406.869 -5554458.107 -18407518.418 10 0 59700 3600.00000 0 18899283.558 -5219674.043 -16345083.046 10 0 59700 4500.00000 0 20763679.944 -5067772.947 -13965841.152 10 0 59700 5400.00000 0 22324869.183 -5064517.575 -11316058.782 10 0 59700 6300.00000 0 23542753.175 -5167516.824 -8447177.731 10 0 59700 7200.00000 0 24388390.089 -5328234.538 -5414818.358 10 0 59700 8100.00000 0 24845072.861 -5494259.962 -2277706.534 10 0 59700 9000.00000 0 24908915.615 -5611743.971 903454.978 10 0 59700 9900.00000 0 24588925.286 -5627898.743 4067149.465 10 0 59700 10800.00000 0 23906556.855 -5493456.196 7152221.990 10 0 59700 11700.00000 0 22894771.549 -5164982.457 10099046.302 10 0 59700 12600.00000 0 21596637.696 -4606951.757 12850661.563 10 0 59700 13500.00000 0 20063532.345 -3793493.074 15353858.295 10 0 59700 14400.00000 0 18353017.926 -2709736.261 17560193.966 10 0 59700 15300.00000 0 16526481.350 -1352700.788 19426919.775 10 0 59700 16200.00000 0 14646632.483 268311.253 20917801.885 10 0 59700 17100.00000 0 12774964.669 2131836.113 22003822.065 10 0 59700 18000.00000 0 10969281.609 4204880.599 22663744.559 10 0 59700 18900.00000 0 9281392.365 6444042.025 22884538.232 10 0 59700 19800.00000 0 7755069.612 8797072.369 22661645.280 10 0 59700 20700.00000 0 6424355.922 11204824.579 21999090.219 10 0 59700 21600.00000 0 5312288.827 13603502.928 20909425.563 10 0 59700 22500.00000 0 4430098.506 15927126.175 19413513.305 10 0 59700 23400.00000 0 3776912.648 18110102.607 17540144.391 10 0 59700 24300.00000 0 3339982.030 20089810.563 15325501.407 10 0 59700 25200.00000 0 3095418.481 21809076.827 12812472.941 10 0 59700 26100.00000 0 3009415.208 23218448.523 10049831.365 10 0 59700 27000.00000 0 3039898.549 24278162.063 7091288.957 10 0 59700 27900.00000 0 3138541.384 24959724.803 3994450.264 10 0 59700 28800.00000 0 3253052.393 25247041.022 819681.458 10 0 59700 29700.00000 0 3329642.805 25137033.096 -2371080.348 10 0 59700 30600.00000 0 3315564.143 24639730.309 -5515553.137 10 0 59700 31500.00000 0 3161606.958 23777820.735 -8552345.388 10 0 59700 32400.00000 0 2824451.935 22585684.997 -11422174.656 10 0 59700 33300.00000 0 2268771.093 21107953.187 -14069043.372 10 0 59700 34200.00000 0 1468987.678 19397647.009 -16441346.923 10 0 59700 35100.00000 0 410618.371 17513987.023 -18492890.888 10 0 59700 36000.00000 0 -908860.360 15519959.060 -20183796.582 10 0 59700 36900.00000 0 -2479658.996 13479743.921 -21481276.812 10 0 59700 37800.00000 0 -4279849.895 11456119.662 -22360266.937 10 0 59700 38700.00000 0 -6276062.774 9507946.247 -22803899.753 10 0 59700 39600.00000 0 -8424670.828 7687838.139 -22803816.082 10 0 59700 40500.00000 0 -10673417.039 6040121.558 -22360306.635 10 0 59700 41400.00000 0 -12963411.847 4599160.389 -21482284.031 10 0 59700 42300.00000 0 -15231418.064 3388118.675 -20187087.256 10 0 59700 43200.00000 0 -17412327.406 2418208.718 -18500123.987 10 0 59700 44100.00000 0 -19441725.502 1688453.263 -16454359.085 10 0 59700 45000.00000 0 -21258438.880 1185968.656 -14089660.386 10 0 59700 45900.00000 0 -22806958.877 886754.140 -11452015.254 10 0 59700 46800.00000 0 -24039642.763 756951.610 -8592633.604 10 0 59700 47700.00000 0 -24918601.879 754520.871 -5566954.970 10 0 59700 48600.00000 0 -25417199.818 831258.532 -2433578.713 10 0 59700 49500.00000 0 -25521099.876 935074.737 746862.370 10 0 59700 50400.00000 0 -25228819.728 1012431.810 3912863.820 10 0 59700 51300.00000 0 -24551771.394 1010842.342 7003225.133 10 0 59700 52200.00000 0 -23513785.710 881322.204 9958217.646 10 0 59700 53100.00000 0 -22150141.478 580696.027 12720723.233 10 0 59700 54000.00000 0 -20506139.589 73658.842 15237323.238 10 0 59700 54900.00000 0 -18635280.804 -665492.344 17459317.945 10 0 59700 55800.00000 0 -16597121.944 -1651529.757 19343658.141 10 0 59700 56700.00000 0 -14454898.210 -2887425.232 20853771.896 10 0 59700 57600.00000 0 -12273008.780 -4363977.471 21960271.456 10 0 59700 58500.00000 0 -10114468.599 -6059953.728 22641526.962 10 0 59700 59400.00000 0 -8038430.713 -7942742.521 22884095.954 10 0 59700 60300.00000 0 -6097880.879 -9969493.090 22682999.807 10 0 59700 61200.00000 0 -4337599.650 -12088697.126 22041840.715 10 0 59700 62100.00000 0 -2792476.403 -14242149.861 20972755.454 10 0 59700 63000.00000 0 -1486245.802 -16367211.443 19496204.946 10 0 59700 63900.00000 0 -430700.128 -18399276.284 17640601.608 10 0 59700 64800.00000 0 374588.696 -20274348.658 15441779.591 10 0 59700 65700.00000 0 942024.688 -21931617.392 12942316.178 10 0 59700 66600.00000 0 1295230.266 -23315921.438 10190715.956 10 0 59700 67500.00000 0 1467806.868 -24380001.898 7240472.509 10 0 59700 68400.00000 0 1501665.819 -25086444.235 4149025.393 10 0 59700 69300.00000 0 1445000.417 -25409226.950 976633.038 10 0 59700 70200.00000 0 1349986.138 -25334809.484 -2214815.597 10 0 59700 71100.00000 0 1270308.139 -24862711.634 -5363025.960 10 0 59700 72000.00000 0 1258623.072 -24005558.669 -8406533.510 10 0 59700 72900.00000 0 1364065.401 -22788589.516 -11285923.766 10 0 59700 73800.00000 0 1629906.603 -21248648.683 -13945010.847 10 0 59700 74700.00000 0 2091468.885 -19432705.083 -16331949.440 10 0 59700 75600.00000 0 2774383.927 -17395961.303 -18400257.000 10 0 59700 76500.00000 0 3693271.852 -15199634.359 -20109725.217 10 0 59700 77400.00000 0 4850897.207 -12908502.858 -21427202.484 10 0 59700 78300.00000 0 6237837.897 -10588324.879 -22327232.344 10 0 59700 79200.00000 0 7832680.850 -8303235.801 -22792536.232 10 0 59700 80100.00000 0 9602735.532 -6113235.432 -22814332.253 10 0 59700 81000.00000 0 11505234.493 -4071869.137 -22392485.376 10 0 59700 81900.00000 0 13488969.722 -2224198.722 -21535487.771 10 0 59700 82800.00000 0 15496295.392 -605145.998 -20260271.386 10 0 59700 83700.00000 0 17465412.635 761724.306 -18591858.065 10 0 59700 84600.00000 0 19332840.672 1864934.397 -16562855.343 10 0 59700 85500.00000 0 21035971.140 2705308.641 -14212808.945 10 0 59701 0.00000 0 22515599.485 3295668.320 -11587425.580 10 0 59701 900.00000 0 23718329.402 3660021.944 -8737680.156 10 0 59701 1800.00000 0 24598749.378 3832286.780 -5718828.579 10 0 59701 2700.00000 0 25121294.482 3854598.373 -2589340.380 10 0 59701 3600.00000 0 25261715.089 3775279.509 590225.124 10 0 59701 4500.00000 0 25008093.572 3646555.100 3758379.315 10 0 59701 5400.00000 0 24361367.547 3522109.100 6853879.673 10 0 59701 6300.00000 0 23335338.633 3454585.922 9816898.497 10 0 59701 7200.00000 0 21956166.656 3493140.738 12590163.498 10 0 59701 8100.00000 0 20261370.224 3681140.986 15120049.638 10 0 59701 9000.00000 0 18298374.561 4054114.988 17357602.469 10 0 59701 9900.00000 0 16122665.875 4638033.537 19259474.427 10 0 59701 10800.00000 0 13795627.385 5447996.694 20788757.166 10 0 59701 11700.00000 0 11382145.061 6487381.633 21915694.689 10 0 59701 12600.00000 0 8948080.648 7747488.617 22618263.913 10 0 59701 13500.00000 0 6557714.971 9207701.999 22882611.509 10 0 59701 14400.00000 0 4271266.080 10836162.068 22703338.040 10 0 59701 15300.00000 0 2142584.176 12590922.566 22083622.909 10 0 59701 16200.00000 0 217118.378 14421548.484 21035186.217 10 0 59701 17100.00000 0 -1469760.256 16271090.250 19578086.398 10 0 59701 18000.00000 0 -2894009.180 18078354.079 17740355.483 10 0 59701 18900.00000 0 -4043685.413 19780375.294 15557476.937 10 0 59701 19800.00000 0 -4919204.026 21314991.950 13071714.155 10 0 59701 20700.00000 0 -5533072.189 22623410.851 10331301.103 10 0 59701 21600.00000 0 -5909109.264 23652657.453 7389509.642 10 0 59701 22500.00000 0 -6081185.380 24357805.141 4303611.199 10 0 59701 23400.00000 0 -6091531.881 24703887.995 1133753.262 10 0 59701 24300.00000 0 -5988695.879 24667414.212 -2058226.551 10 0 59701 25200.00000 0 -5825226.947 24237414.194 -5210024.254 10 0 59701 26100.00000 0 -5655195.918 23415977.167 -8260105.220 10 0 59701 27000.00000 0 -5531653.393 22218252.422 -11148925.645 10 0 59701 27900.00000 0 -5504138.268 20671914.418 -13820113.747 10 0 59701 28800.00000 0 -5616344.373 18816114.355 -16221585.598 10 0 59701 29700.00000 0 -5904046.308 16699963.052 -18306572.277 10 0 59701 30600.00000 0 -6393373.978 14380610.005 -20034537.255 10 0 59701 31500.00000 0 -7099509.922 11921000.784 -21371965.594 10 0 59701 32400.00000 0 -8025864.918 9387408.145 -22293009.784 10 0 59701 33300.00000 0 -9163766.531 6846841.365 -22779980.347 10 0 59701 34200.00000 0 -10492673.069 4364442.832 -22823672.788 10 0 59701 35100.00000 0 -11980902.991 2000980.618 -22423526.096 10 0 59701 36000.00000 0 -13586848.014 -189459.088 -21587611.362 10 0 59701 36900.00000 0 -15260617.875 -2161484.868 -20332452.477 10 0 59701 37800.00000 0 -16946046.886 -3880036.515 -18682684.029 10 0 59701 38700.00000 0 -18582977.642 -5321579.543 -16670554.455 10 0 59701 39600.00000 0 -20109725.999 -6474810.891 -14335285.283 10 0 59701 40500.00000 0 -21465624.380 -7340849.627 -11722299.740 10 0 59701 41400.00000 0 -22593537.686 -7932907.825 -8882336.200 10 0 59701 42300.00000 0 -23442247.428 -8275458.163 -5870463.914 10 0 59701 43200.00000 0 -23968605.551 -8402935.558 -2745019.930 10 0 59701 44100.00000 0 -24139369.250 -8358029.067 433512.588 10 0 59701 45000.00000 0 -23932641.248 -8189636.910 3603663.540 10 0 59701 45900.00000 0 -23338856.499 -7950571.047 6704151.060 10 0 59701 46800.00000 0 -22361274.830 -7695107.707 9675051.043 10 0 59701 47700.00000 0 -21015959.284 -7476486.344 12458939.612 10 0 59701 48600.00000 0 -19331240.893 -7344461.389 15001987.791 10 0 59701 49500.00000 0 -17346691.437 -7343008.869 17254988.648 10 0 59701 50400.00000 0 -15111645.720 -7508283.523 19174298.274 10 0 59701 51300.00000 0 -12683333.153 -7866911.880 20722673.584 10 0 59701 52200.00000 0 -10124694.150 -8434693.085 21869991.656 10 0 59701 53100.00000 0 -7501969.944 -9215762.727 22593837.110 10 0 59701 54000.00000 0 -4882163.562 -10202256.187 22879946.272 10 0 59701 54900.00000 0 -2330475.343 -11374487.621 22722499.052 10 0 59701 55800.00000 0 92182.144 -12701639.631 22124251.872 10 0 59701 56700.00000 0 2331487.756 -14142937.482 21096507.644 10 0 59701 57600.00000 0 4341738.826 -15649261.546 19658921.502 10 0 59701 58500.00000 0 6087517.200 -17165132.887 17839143.999 10 0 59701 59400.00000 0 7544924.320 -18630990.805 15672306.530 10 0 59701 60300.00000 0 8702332.977 -19985668.066 13200356.941 10 0 59701 61200.00000 0 9560623.209 -21168960.270 10471256.616 10 0 59701 62100.00000 0 10132891.585 -22124180.898 7538053.469 10 0 59701 63000.00000 0 10443645.488 -22800593.223 4457848.327 10 0 59701 63900.00000 0 10527516.174 -23155614.711 1290675.073 10 0 59701 64800.00000 0 10427545.419 -23156698.632 -1901682.796 10 0 59701 65700.00000 0 10193119.301 -22782811.065 -5056914.709 10 0 59701 66600.00000 0 9877638.261 -22025438.682 -8113418.819 10 0 59701 67500.00000 0 9536024.326 -20889082.931 -11011524.824 10 0 59701 68400.00000 0 9222173.580 -19391218.489 -13694677.787 10 0 59701 69300.00000 0 8986464.303 -17561717.212 -16110557.791 10 0 59701 70200.00000 0 8873428.626 -15441761.927 -18212111.974 10 0 59701 71100.00000 0 8919688.117 -13082296.416 -19958477.785 10 0 59701 72000.00000 0 9152241.884 -10542077.799 -21315778.845 10 0 59701 72900.00000 0 9587180.131 -7885414.200 -22257778.127 10 0 59701 73800.00000 0 10228877.411 -5179683.475 -22766376.374 10 0 59701 74700.00000 0 11069698.945 -2492737.635 -22831947.217 10 0 59701 75600.00000 0 12090231.268 109698.454 -22453503.980 10 0 59701 76500.00000 0 13260026.185 2566526.003 -21638696.597 10 0 59701 77400.00000 0 14538825.314 4823565.709 -20403640.448 10 0 59701 78300.00000 0 15878212.487 6835551.919 -18772582.046 10 0 59701 79200.00000 0 17223623.643 8567746.833 -16777409.541 10 0 59701 80100.00000 0 18516629.193 9997110.260 -14457018.706 10 0 59701 81000.00000 0 19697392.915 11112979.224 -11856547.606 10 0 59701 81900.00000 0 20707204.558 11917232.258 -9026495.293 10 0 59701 82800.00000 0 21490980.552 12423934.429 -6021741.914 10 0 59701 83700.00000 0 21999628.997 12658480.626 -2900489.096 10 0 59701 84600.00000 0 22192180.846 12656275.104 276859.319 10 0 59701 85500.00000 0 22037599.200 12461004.168 3448855.051 10 0 59702 0.00000 0 21516192.181 12122575.437 6554179.917 10 0 59702 900.00000 0 20620570.563 11694810.181 9532817.207 10 0 59702 1800.00000 0 19356111.293 11232985.860 12327194.223 10 0 59702 2700.00000 0 17740906.483 10791330.784 14883280.893 10 0 59702 3600.00000 0 15805199.892 10420575.619 17151620.378 10 0 59702 4500.00000 0 13590332.933 10165663.481 19088274.694 10 0 59702 5400.00000 0 11147242.321 10063713.991 20655667.984 10 0 59702 6300.00000 0 8534569.615 10142326.388 21823312.020 10 0 59702 7200.00000 0 5816458.829 10418293.023 22568400.382 10 0 59702 8100.00000 0 3060130.998 10896777.960 22876259.910 10 0 59702 9000.00000 0 333333.947 11570996.534 22740650.257 10 0 59702 9900.00000 0 -2298228.876 12422411.249 22163904.772 10 0 59702 10800.00000 0 -4773385.392 13421438.168 21156908.566 10 0 59702 11700.00000 0 -7037795.400 14528636.742 19738912.335 10 0 59702 12600.00000 0 -9045969.201 15696335.605 17937183.502 10 0 59702 13500.00000 0 -10762920.058 16870628.224 15786499.282 10 0 59702 14400.00000 0 -12165380.875 17993656.114 13328489.481 10 0 59702 15300.00000 0 -13242533.145 19006084.316 10610840.121 10 0 59702 16200.00000 0 -13996216.623 19849664.867 7686372.190 10 0 59702 17100.00000 0 -14440610.040 20469779.264 4612012.829 10 0 59702 18000.00000 0 -14601395.746 20817850.971 1447679.191 10 0 59702 18900.00000 0 -14514443.595 20853523.893 -1744902.458 10 0 59702 19800.00000 0 -14224070.338 20546512.274 -4903418.011 10 0 59702 20700.00000 0 -13780949.454 19878041.330 -7966201.319 10 0 59702 21600.00000 0 -13239761.769 18841815.526 -10873458.326 10 0 59702 22500.00000 0 -12656688.603 17444471.814 -13568453.460 10 0 59702 23400.00000 0 -12086856.017 15705497.621 -15998633.048 10 0 59702 24300.00000 0 -11581840.668 13656616.558 -18116662.221 10 0 59702 25200.00000 0 -11187344.778 11340667.872 -19881354.001 10 0 59702 26100.00000 0 -10941139.954 8810027.408 -21258471.839 10 0 59702 27000.00000 0 -10871367.477 6124637.292 -22221390.120 10 0 59702 27900.00000 0 -10995266.858 3349727.811 -22751600.420 10 0 59702 28800.00000 0 -11318385.631 553327.691 -22839054.770 10 0 59702 29700.00000 0 -11834302.503 -2196332.826 -22482340.755 10 0 59702 30600.00000 0 -12524873.954 -4833417.909 -21688686.722 10 0 59702 31500.00000 0 -13360992.157 -7296973.497 -20473798.722 10 0 59702 32400.00000 0 -14303820.622 -9533203.905 -18861534.024 10 0 59702 33300.00000 0 -15306454.147 -11497444.885 -16883418.963 10 0 59702 34200.00000 0 -16315932.109 -13155753.330 -14578021.731 10 0 59702 35100.00000 0 -17275519.842 -14486050.318 -11990193.144 10 0 59702 36000.00000 0 -18127162.076 -15478772.823 -9170190.667 10 0 59702 36900.00000 0 -18814005.563 -16137009.800 -6172702.955 10 0 59702 37800.00000 0 -19282885.616 -16476119.734 -3055793.703 10 0 59702 38700.00000 0 -19486673.017 -16522847.981 120215.138 10 0 59702 39600.00000 0 -19386383.874 -16313982.650 3293899.717 10 0 59702 40500.00000 0 -18952964.898 -15894606.566 6403908.743 10 0 59702 41400.00000 0 -18168680.095 -15316019.124 9390134.458 10 0 59702 42300.00000 0 -17028041.249 -14633415.149 12194858.584 10 0 59702 43200.00000 0 -15538243.201 -13903417.595 14763852.543 10 0 59702 44100.00000 0 -13719085.147 -13181566.669 17047412.040 10 0 59702 45000.00000 0 -11602380.085 -12519869.667 19001307.254 10 0 59702 45900.00000 0 -9230875.241 -11964513.204 20587631.507 10 0 59702 46800.00000 0 -6656726.148 -11553832.972 21775532.884 10 0 59702 47700.00000 0 -3939585.263 -11316625.739 22541815.161 10 0 59702 48600.00000 0 -1144381.786 -11270874.454 22871396.536 10 0 59702 49500.00000 0 1661117.934 -11422940.659 22757616.876 10 0 59702 50400.00000 0 4408870.481 -11767259.375 22202386.559 10 0 59702 51300.00000 0 7033131.713 -12286551.086 21216172.653 10 0 59702 52200.00000 0 9472943.798 -12952544.066 19817820.851 10 0 59702 53100.00000 0 11674430.159 -13727178.965 18034214.558 10 0 59702 54000.00000 0 13592802.915 -14564247.129 15899775.608 10 0 59702 54900.00000 0 15193998.556 -15411395.385 13455814.217 10 0 59702 55800.00000 0 16455872.503 -16212413.910 10749739.153 10 0 59702 56700.00000 0 17368901.394 -16909710.986 7834142.232 10 0 59702 57600.00000 0 17936362.485 -17446869.613 4765774.335 10 0 59702 58500.00000 0 18173981.734 -17771176.602 1604433.042 10 0 59702 59400.00000 0 18109064.996 -17836015.225 -1588215.647 10 0 59702 60300.00000 0 17779149.237 -17603017.749 -4749857.211 10 0 59702 61200.00000 0 17230231.575 -17043884.187 -7818764.331 10 0 59702 62100.00000 0 16514652.560 -16141787.831 -10735022.238 10 0 59702 63000.00000 0 15688725.206 -14892305.959 -13441717.624 10 0 59702 63900.00000 0 14810212.343 -13303834.811 -15886065.753 10 0 59702 64800.00000 0 13935761.295 -11397470.350 -18020452.205 10 0 59702 65700.00000 0 13118406.370 -9206359.428 -19803367.757 10 0 59702 66600.00000 0 12405246.314 -6774548.980 -21200217.560 10 0 59702 67500.00000 0 11835395.687 -4155382.141 -22183988.941 10 0 59702 68400.00000 0 11438296.810 -1409509.345 -22735765.467 10 0 59702 69300.00000 0 11232462.891 1397401.473 -22845078.338 10 0 59702 70200.00000 0 11224704.051 4197159.337 -22510089.787 10 0 59702 71100.00000 0 11409867.150 6921645.130 -21737606.577 10 0 59702 72000.00000 0 11771098.289 9505399.007 -20542925.075 10 0 59702 72900.00000 0 12280614.848 11888093.564 -18949512.578 10 0 59702 73800.00000 0 12900952.580 14016791.311 -16988532.537 10 0 59702 74700.00000 0 13586633.598 15847894.465 -14698224.121 10 0 59702 75600.00000 0 14286183.840 17348708.384 -12123149.116 10 0 59702 76500.00000 0 14944414.380 18498556.186 -9313321.229 10 0 59702 77400.00000 0 15504870.472 19289400.950 -6323235.108 10 0 59702 78300.00000 0 15912345.499 19725952.143 -3210813.710 10 0 59702 79200.00000 0 16115354.682 19825254.249 -36294.042 10 0 59702 80100.00000 0 16068465.519 19615776.812 3138927.689 10 0 59702 81000.00000 0 15734387.942 19136045.381 6253470.086 10 0 59702 81900.00000 0 15085737.297 18432871.486 9247138.120 10 0 59702 82800.00000 0 14106396.721 17559255.900 12062070.761 10 0 59702 83700.00000 0 12792421.971 16572052.702 14643843.850 10 0 59702 84600.00000 0 11152450.412 15529491.118 16942508.329 10 0 59702 85500.00000 0 9207596.083 14488657.867 18913544.981 99